FW6147 Weather Reports


time (UTC)temp
F
wind
direction
speed
knots
gust
knots
rain 1hr
in
rain 24hr
in
rain mn
in
humidity
%
barometer
mb
20260903093559 73 0 0.0 1.7 0.00 0.00 0.00 69 1021.2
20260903093107 74 0 0.0 2.6 0.00 0.00 0.00 69 1021.1
20260903092600 74 0 0.9 2.6 0.00 0.00 0.00 69 1021.3
20260903092056 74 123 0.9 2.6 0.00 0.00 0.00 69 1021.3
20260903091607 74 123 0.0 1.7 0.00 0.00 0.00 69 1021.4
20260903091053 74 123 0.0 1.7 0.00 0.00 0.00 69 1021.3
20260903090611 74 123 0.9 2.6 0.00 0.00 0.00 69 1021.3
20260903090105 74 123 0.0 2.6 0.00 0.00 0.00 69 1021.3
20260903085555 74 0 0.0 2.6 0.00 0.00 0.00 69 1021.4
20260903085053 74 0 0.0 2.6 0.00 0.00 0.00 69 1021.5
20260903084604 74 123 0.0 2.6 0.00 0.00 0.00 69 1021.4
20260903084056 73 123 0.9 2.6 0.00 0.00 0.00 69 1021.5
20260903083553 73 123 0.9 2.6 0.00 0.00 0.00 69 1021.6
20260903083104 73 0 0.0 0.9 0.00 0.00 0.00 70 1021.7
20260903082555 73 0 0.0 0.0 0.00 0.00 0.00 70 1021.7
20260903082055 73 0 0.0 0.0 0.00 0.00 0.00 69 1021.9
20260903081601 73 0 0.0 0.0 0.00 0.00 0.00 69 1021.9
20260903081056 73 0 0.0 2.6 0.00 0.00 0.00 70 1021.8
20260903080556 74 0 0.0 2.6 0.00 0.00 0.00 71 1021.8
20260903075554 74 0 0.0 3.5 0.00 0.00 0.00 70 1021.9
20260903075054 74 0 0.0 3.5 0.00 0.00 0.00 70 1021.8
20260903074603 74 0 0.9 2.6 0.00 0.00 0.00 69 1021.9
20260903074056 74 123 0.9 3.5 0.00 0.00 0.00 68 1021.8
20260903073555 74 123 1.7 3.5 0.00 0.00 0.00 69 1021.9
20260903073105 74 123 1.7 2.6 0.00 0.00 0.00 68 1021.9
20260903072556 74 123 1.7 3.5 0.00 0.00 0.00 68 1021.9
20260903072055 75 123 1.7 3.5 0.00 0.00 0.00 68 1022.0
20260903071604 75 123 1.7 2.6 0.00 0.00 0.00 68 1021.9
20260903071059 75 123 0.0 2.6 0.00 0.00 0.00 68 1022.0
20260903070556 75 0 0.0 0.9 0.00 0.00 0.00 67 1022.0
20260903070105 75 0 0.0 0.9 0.00 0.00 0.00 66 1021.9
20260903065554 75 0 0.0 1.7 0.00 0.00 0.00 66 1022.0
20260903065057 75 0 0.0 1.7 0.00 0.00 0.00 65 1021.8
20260903064603 75 123 0.0 1.7 0.00 0.00 0.00 65 1021.9
20260903064055 76 0 0.0 2.6 0.00 0.00 0.00 65 1021.8
20260903063554 76 123 0.0 3.5 0.00 0.00 0.00 65 1021.7
20260903063104 76 123 1.7 3.5 0.00 0.00 0.00 64 1021.7
20260903062556 76 123 0.9 4.3 0.00 0.00 0.00 64 1021.7
20260903062056 76 123 1.7 4.3 0.00 0.00 0.00 64 1021.6
20260903061617 76 123 1.7 4.3 0.00 0.00 0.00 64 1021.6
20260903061054 76 122 2.6 6.1 0.00 0.00 0.00 64 1021.6
20260903060555 75 114 2.6 7.0 0.00 0.00 0.00 64 1021.6
20260903060145 75 129 3.5 7.0 0.00 0.00 0.00 65 1021.5
20260903023556 80 288 0.9 5.2 0.00 0.00 0.00 55 1020.7
20260903023135 80 299 2.6 5.2 0.00 0.00 0.00 54 1020.8
20260903022619 80 288 2.6 5.2 0.00 0.00 0.00 52 1020.6
20260903022058 80 292 2.6 6.1 0.00 0.00 0.00 51 1020.7
20260903021611 80 309 2.6 6.1 0.00 0.00 0.00 51 1020.5
20260903021055 80 288 3.5 6.1 0.00 0.00 0.00 51 1020.5
20260903020556 81 302 2.6 5.2 0.00 0.00 0.00 53 1020.6
20260903020108 81 307 2.6 5.2 0.00 0.00 0.00 53 1020.4
20260903015555 81 294 2.6 5.2 0.00 0.00 0.00 53 1020.2
20260903015055 81 305 2.6 5.2 0.00 0.00 0.00 52 1020.2
20260903014604 81 306 1.7 5.2 0.00 0.00 0.00 52 1020.2
20260903014149 81 297 1.7 4.3 0.00 0.00 0.00 51 1020.2
20260902183626 84 0 0.9 3.5 0.00 0.00 0.00 39 1023.1
20260902183115 83 68 0.9 2.6 0.00 0.00 0.00 39 1023.1
20260902182555 83 0 0.0 2.6 0.00 0.00 0.00 39 1023.2
20260902182059 83 0 0.9 5.2 0.00 0.00 0.00 39 1023.3
20260902181606 84 68 0.9 6.1 0.00 0.00 0.00 39 1023.4
20260902181055 84 68 2.6 6.1 0.00 0.00 0.00 38 1023.5
20260902180553 84 63 4.3 6.1 0.00 0.00 0.00 39 1023.6
20260902175553 85 1 2.6 7.0 0.00 0.00 0.00 39 1023.6
20260902175055 85 3 4.3 7.0 0.00 0.00 0.00 41 1023.6
20260902174603 85 360 3.5 6.1 0.00 0.00 0.00 40 1023.6
20260902174058 85 359 1.7 4.3 0.00 0.00 0.00 43 1023.6
20260902173553 84 25 0.9 7.0 0.00 0.00 0.00 43 1023.7
20260902173111 84 11 1.7 7.0 0.00 0.00 0.00 43 1023.7
20260902172555 84 359 2.6 7.0 0.00 0.00 0.00 46 1023.8
20260902172054 83 28 0.9 6.1 0.00 0.00 0.00 44 1023.8
20260902171606 83 0 2.6 7.8 0.00 0.00 0.00 44 1023.7
20260902171055 83 360 2.6 7.8 0.00 0.00 0.00 44 1023.7
20260902170555 83 46 3.5 7.0 0.00 0.00 0.00 45 1023.8
20260902170134 83 29 3.5 5.2 0.00 0.00 0.00 45 1023.8
20260902165554 82 0 1.7 4.3 0.00 0.00 0.00 48 1023.8
20260902165059 82 0 0.0 4.3 0.00 0.00 0.00 48 1023.7
20260902164608 82 0 0.0 4.3 0.00 0.00 0.00 46 1023.7
20260902164054 82 329 1.7 3.5 0.00 0.00 0.00 48 1023.7
20260902163556 82 0 0.9 5.2 0.00 0.00 0.00 48 1023.8
20260902163105 81 41 1.7 5.2 0.00 0.00 0.00 49 1023.8
20260902162558 81 16 2.6 5.2 0.00 0.00 0.00 51 1023.8
20260902162053 81 1 2.6 5.2 0.00 0.00 0.00 50 1023.9
20260902161604 81 1 2.6 5.2 0.00 0.00 0.00 51 1023.9
20260902161055 81 46 1.7 4.3 0.00 0.00 0.00 52 1023.9
20260902160554 81 37 1.7 3.5 0.00 0.00 0.00 52 1023.9
20260902160058 80 52 0.9 5.2 0.00 0.00 0.00 53 1023.9
20260902155556 81 72 2.6 5.2 0.00 0.00 0.00 52 1024.0
20260902155054 80 91 2.6 7.8 0.00 0.00 0.00 54 1023.8
20260902154611 80 142 2.6 7.8 0.00 0.00 0.00 55 1023.9
20260902154056 80 101 3.5 7.8 0.00 0.00 0.00 55 1023.8
20260902153554 79 113 3.5 6.1 0.00 0.00 0.00 57 1024.0
20260902153100 79 110 3.5 7.0 0.00 0.00 0.00 57 1024.0
20260902152556 79 78 4.3 7.0 0.00 0.00 0.00 58 1023.9
20260902152057 79 109 4.3 7.0 0.00 0.00 0.00 61 1024.0
20260902151559 78 98 3.5 6.1 0.00 0.00 0.00 61 1023.9
20260902151053 78 101 2.6 6.1 0.00 0.00 0.00 61 1023.9
20260902150553 77 113 2.6 5.2 0.00 0.00 0.00 62 1023.9
20260902150105 77 120 2.6 5.2 0.00 0.00 0.00 62 1023.8
20260902145555 76 122 3.5 5.2 0.00 0.00 0.00 63 1023.8
20260902145052 76 112 3.5 5.2 0.00 0.00 0.00 64 1023.9
20260902144602 76 111 3.5 5.2 0.00 0.00 0.00 65 1023.8
20260902144055 75 95 2.6 5.2 0.00 0.00 0.00 66 1023.8
20260902143552 75 116 2.6 5.2 0.00 0.00 0.00 66 1023.8
20260902143102 74 130 0.9 3.5 0.00 0.00 0.00 69 1023.8
20260902142555 73 136 1.7 3.5 0.00 0.00 0.00 70 1023.8
20260902142056 72 139 1.7 5.2 0.00 0.00 0.00 72 1023.8
20260902141601 72 142 1.7 5.2 0.00 0.00 0.00 74 1023.8
20260902141055 71 148 2.6 4.3 0.00 0.00 0.00 76 1023.8
20260902140553 70 179 1.7 3.5 0.00 0.00 0.00 76 1023.7
20260902140105 70 196 0.9 3.5 0.00 0.00 0.00 79 1023.5
20260902135552 69 196 1.7 3.5 0.00 0.00 0.00 80 1023.5
20260902135055 69 196 0.9 2.6 0.00 0.00 0.00 81 1023.4
20260902134604 68 196 0.9 2.6 0.00 0.00 0.00 82 1023.4
20260902134054 68 196 0.0 0.0 0.00 0.00 0.00 83 1023.4
20260902133555 67 0 0.0 0.0 0.00 0.00 0.00 83 1023.4
20260902133058 66 0 0.0 0.9 0.00 0.00 0.00 84 1023.4
20260902132556 66 0 0.0 0.9 0.00 0.00 0.00 83 1023.4
20260902132056 66 0 0.0 0.9 0.00 0.00 0.00 83 1023.2
20260902131601 66 0 0.0 1.7 0.00 0.00 0.00 83 1023.2
20260902131057 66 0 0.0 1.7 0.00 0.00 0.00 83 1023.1
20260902130556 66 0 0.0 0.9 0.00 0.00 0.00 82 1023.1
20260902130105 66 0 0.0 0.9 0.00 0.00 0.00 82 1023.1
20260902125555 66 0 0.0 0.9 0.00 0.00 0.00 82 1023.1
20260902125055 67 0 0.0 2.6 0.00 0.00 0.00 81 1023.1
20260902124602 67 0 0.0 2.6 0.00 0.00 0.00 81 1023.0
20260902124054 67 196 0.0 2.6 0.00 0.00 0.00 81 1022.8
20260902123558 67 0 0.9 2.6 0.00 0.00 0.00 82 1022.8
20260902123107 67 0 0.0 2.6 0.00 0.00 0.00 82 1022.8
20260902122555 67 196 0.0 2.6 0.00 0.00 0.00 82 1022.7
20260902122055 67 196 0.9 2.6 0.00 0.00 0.00 82 1022.6
20260902121559 67 196 0.9 2.6 0.00 0.00 0.00 83 1022.6
20260902121055 67 196 0.0 1.7 0.00 0.00 0.00 82 1022.6
20260902120555 67 0 0.9 1.7 0.00 0.00 0.00 82 1022.5
20260902120059 67 196 0.0 2.6 0.00 0.00 0.00 82 1022.6
20260902115555 67 0 0.9 2.6 0.00 0.00 0.00 81 1022.6
20260902115055 67 196 0.0 2.6 0.00 0.00 0.00 81 1022.5
20260902114621 67 0 0.9 2.6 0.00 0.00 0.00 81 1022.5
20260902114054 68 0 0.9 2.6 0.00 0.00 0.00 81 1022.5
20260902113554 68 196 0.0 1.7 0.00 0.00 0.00 80 1022.4
20260902113107 68 196 0.0 3.5 0.00 0.00 0.00 81 1022.4
20260902112555 67 196 0.0 3.5 0.00 0.00 0.00 80 1022.3
20260902112055 68 0 1.7 3.5 0.00 0.00 0.00 81 1022.4
20260902111601 68 0 0.0 2.6 0.00 0.00 0.00 80 1022.3
20260902111055 68 0 0.9 2.6 0.00 0.00 0.00 80 1022.4
20260902110600 68 0 0.0 0.0 0.00 0.00 0.00 80 1022.3
20260902110107 68 0 0.0 0.9 0.00 0.00 0.00 80 1022.3
20260902105557 68 0 0.0 1.7 0.00 0.00 0.00 80 1022.3
20260902105055 68 0 0.9 4.3 0.00 0.00 0.00 80 1022.3
20260902104601 68 0 0.0 4.3 0.00 0.00 0.00 80 1022.3
20260902104056 68 186 0.9 4.3 0.00 0.00 0.00 79 1022.4
20260902103553 68 0 0.0 2.6 0.00 0.00 0.00 79 1022.4
20260902103113 68 0 0.0 5.2 0.00 0.00 0.00 79 1022.4
20260902102553 68 186 0.9 5.2 0.00 0.00 0.00 79 1022.4
20260902102055 68 175 2.6 5.2 0.00 0.00 0.00 79 1022.4
20260902101604 68 164 1.7 3.5 0.00 0.00 0.00 80 1022.3
20260902101100 68 0 0.0 3.5 0.00 0.00 0.00 80 1022.5
20260902100554 68 245 0.9 3.5 0.00 0.00 0.00 79 1022.5
20260902100126 68 245 1.7 2.6 0.00 0.00 0.00 79 1022.5
20260902095551 68 0 0.9 2.6 0.00 0.00 0.00 78 1022.5
20260902095051 68 0 0.9 1.7 0.00 0.00 0.00 78 1022.4
20260902094617 68 314 0.0 2.6 0.00 0.00 0.00 77 1022.4
20260902094055 68 0 0.0 2.6 0.00 0.00 0.00 76 1022.4